Pagosa Springs, CO

10:46 PM MDT on September 27, 2016 (GMT -0600)
Pagosa Springs

Weather History for KPSO - May, 2013

Change the Weather History Date:

Friday, May 3, 2013

  Actual Average (KDRO) Record (KDRO)
Temperature  
Mean Temperature 42 °F 49 °F  
Max Temperature 61 °F 66 °F 81 °F (2000)
Min Temperature 23 °F 32 °F 21 °F (2011)
Degree Days  
Heating Degree Days 23 16  
Month to date heating degree days 48  
Since 1 July heating degree days 6684  
Cooling Degree Days 0 0  
Month to date cooling degree days 0  
Year to date cooling degree days 0  
Moisture  
Dew Point 5 °F    
Average Humidity 26    
Maximum Humidity 56    
Minimum Humidity 9    
Precipitation  
Precipitation 0.00 in 0.04 in 0.70 in (2001)
Month to date precipitation 0.13  
Year to date precipitation 4.76  
Sea Level Pressure  
Sea Level Pressure 30.24 in    
Wind  
Wind Speed 2 mph (SW)    
Max Wind Speed 13 mph    
Max Gust Speed 20 mph    
Visibility 10 miles    
Events      
T = Trace of Precipitation, MM = Missing Value Source: NWS Daily Summary

Daily Weather History Graph

Daily Weather History Graph

Search for Another Location

Airport or City:

Trip Planner

Search our weather history database for the weather conditions in past years. The results will help you decide how hot, cold, wet, or windy it might be!

Date:

Astronomy

May. 03, 2013 Rise Set
Actual Time 6:10 AM MDT 7:59 PM MDT
Civil Twilight 5:42 AM MDT 8:28 PM MDT
Nautical Twilight 5:08 AM MDT 9:02 PM MDT
Astronomical Twilight 4:32 AM MDT 9:38 PM MDT
Moon 2:28 AM MDT (5/3) 2:05 PM MDT (5/3)
Length of Visible Light 14h 45m
Length of Day
13h 49m
Last Quarter, 36% of the Moon is Illuminated
May 3
Last Quarter
May 9
New
May 17
First Quarter
May 24
Full
May 31
Last Quarter

Hourly Weather History & Observations

Time (MDT) Temp. Windchill Dew Point Humidity Pressure Visibility Wind Dir Wind Speed Gust Speed Precip Events Conditions
12:15 AM 30.7 °F - 7.7 °F 38% 30.41 in 10.0 mi Calm Calm - N/A   Clear
12:35 AM 32.0 °F - 5.5 °F 33% 30.41 in 10.0 mi Calm Calm - N/A   Clear
12:55 AM 31.3 °F 27.9 °F 5.2 °F 33% 30.41 in 10.0 mi NE 3.5 mph - N/A   Clear
1:15 AM 28.9 °F - 6.6 °F 39% 30.40 in 10.0 mi Calm Calm - N/A   Clear
1:35 AM 30.6 °F - 5.0 °F 34% 30.40 in 10.0 mi Calm Calm - N/A   Clear
1:55 AM 29.3 °F - 8.4 °F 42% 30.39 in 10.0 mi Calm Calm - N/A   Clear
2:15 AM 29.1 °F - 7.9 °F 41% 30.38 in 10.0 mi Calm Calm - N/A   Clear
2:35 AM 26.8 °F - 9.5 °F 48% 30.38 in 10.0 mi Calm Calm - N/A   Clear
2:55 AM 25.7 °F - 9.9 °F 51% 30.38 in 10.0 mi Calm Calm - N/A   Clear
3:15 AM 28.2 °F - 6.3 °F 39% 30.38 in 10.0 mi Calm Calm - N/A   Clear
3:35 AM 25.7 °F - 6.6 °F 44% 30.36 in 10.0 mi Calm Calm - N/A   Clear
3:55 AM 24.6 °F - 7.2 °F 48% 30.37 in 10.0 mi Calm Calm - N/A   Clear
4:15 AM 27.5 °F - 5.7 °F 40% 30.36 in 10.0 mi Calm Calm - N/A   Clear
4:35 AM 26.2 °F - 7.2 °F 44% 30.36 in 10.0 mi Calm Calm - N/A   Clear
4:55 AM 24.1 °F - 10.4 °F 56% 30.36 in 10.0 mi Calm Calm - N/A   Clear
5:15 AM 23.0 °F - 7.3 °F 51% 30.35 in 10.0 mi Calm Calm - N/A   Clear
5:35 AM 25.0 °F 20.7 °F 6.6 °F 46% 30.35 in 10.0 mi NW 3.5 mph - N/A   Clear
5:55 AM 25.9 °F - 6.4 °F 44% 30.35 in 10.0 mi Calm Calm - N/A   Clear
6:15 AM 23.7 °F - 7.2 °F 49% 30.34 in 10.0 mi Calm Calm - N/A   Clear
6:35 AM 24.1 °F - 7.7 °F 50% 30.35 in 10.0 mi Calm Calm - N/A   Clear
6:55 AM 26.1 °F - 11.3 °F 54% 30.35 in 10.0 mi Calm Calm - N/A   Clear
7:15 AM 28.0 °F - 11.8 °F 51% 30.36 in 10.0 mi Calm Calm - N/A   Clear
7:35 AM 31.8 °F - 10.8 °F 42% 30.36 in 10.0 mi Calm Calm - N/A   Clear
7:55 AM 34.0 °F - 7.3 °F 33% 30.36 in 10.0 mi Calm Calm - N/A   Clear
8:15 AM 35.8 °F - 6.6 °F 30% 30.36 in 10.0 mi Calm Calm - N/A   Clear
8:35 AM 38.3 °F - 5.4 °F 25% 30.35 in 10.0 mi Calm Calm - N/A   Clear
8:55 AM 39.4 °F - 5.4 °F 24% 30.35 in 10.0 mi Calm Calm - N/A   Clear
9:15 AM 41.2 °F 36.6 °F 6.3 °F 24% 30.34 in 10.0 mi South 6.9 mph - N/A   Clear
9:35 AM 41.7 °F 38.0 °F 6.1 °F 23% 30.33 in 10.0 mi SSE 5.8 mph - N/A   Clear
9:55 AM 42.6 °F 39.9 °F 6.4 °F 23% 30.32 in 10.0 mi SSW 4.6 mph - N/A   Clear
10:15 AM 43.5 °F - 2.7 °F 18% 30.32 in 10.0 mi Calm Calm - N/A   Clear
10:35 AM 45.5 °F 42.5 °F 3.9 °F 18% 30.31 in 10.0 mi SW 5.8 mph - N/A   Clear
10:55 AM 46.4 °F 44.3 °F 3.7 °F 17% 30.31 in 10.0 mi SW 4.6 mph - N/A   Clear
11:15 AM 47.3 °F - 4.1 °F 17% 30.29 in 10.0 mi Calm Calm - N/A   Clear
11:35 AM 49.5 °F - 4.5 °F 16% 30.29 in 10.0 mi South 8.1 mph - N/A   Clear
11:55 AM 51.3 °F - 5.5 °F 16% 30.27 in 10.0 mi WSW 9.2 mph - N/A   Clear
12:15 PM 52.2 °F - 5.5 °F 15% 30.26 in 10.0 mi SW 6.9 mph - N/A   Clear
12:35 PM 52.7 °F - 3.0 °F 13% 30.25 in 10.0 mi SSW 6.9 mph - N/A   Clear
12:55 PM 54.0 °F - 1.9 °F 12% 30.24 in 10.0 mi West 4.6 mph - N/A   Clear
1:15 PM 54.5 °F - -0.2 °F 11% 30.23 in 10.0 mi SW 5.8 mph - N/A   Clear
1:35 PM 55.6 °F - -1.3 °F 10% 30.22 in 10.0 mi SW 8.1 mph - N/A   Clear
1:55 PM 56.5 °F - -3.1 °F 9% 30.21 in 10.0 mi SW 4.6 mph - N/A   Clear
2:15 PM 57.6 °F - -1.5 °F 9% 30.20 in 10.0 mi WSW 3.5 mph - N/A   Clear
2:35 PM 58.1 °F - 0.5 °F 10% 30.19 in 10.0 mi SW 8.1 mph 19.6 mph N/A   Clear
2:55 PM 59.5 °F - 1.6 °F 10% 30.18 in 10.0 mi West 4.6 mph - N/A   Clear
3:15 PM 59.7 °F - 1.4 °F 10% 30.16 in 10.0 mi South 10.4 mph 17.3 mph N/A   Clear
3:35 PM 59.5 °F - 1.0 °F 9% 30.15 in 10.0 mi SW 5.8 mph - N/A   Clear
3:55 PM 61.0 °F - 1.2 °F 9% 30.14 in 10.0 mi SSW 4.6 mph - N/A   Clear
4:15 PM 60.4 °F - 1.2 °F 9% 30.13 in 10.0 mi SSW 3.5 mph 9.2 mph N/A   Clear
4:35 PM 60.3 °F - 2.1 °F 10% 30.12 in 10.0 mi SSW 12.7 mph 16.1 mph N/A   Clear
4:55 PM 60.4 °F - 1.9 °F 10% 30.12 in 10.0 mi SW 9.2 mph 16.1 mph N/A   Clear
5:15 PM 60.8 °F - 1.9 °F 9% 30.11 in 10.0 mi SSW 12.7 mph - N/A   Clear
5:35 PM 61.3 °F - 1.6 °F 9% 30.10 in 10.0 mi SW 11.5 mph 16.1 mph N/A   Clear
5:55 PM 61.0 °F - 2.1 °F 9% 30.09 in 10.0 mi SW 11.5 mph - N/A   Clear
6:15 PM 61.0 °F - 3.0 °F 10% 30.09 in 10.0 mi WSW 11.5 mph - N/A   Clear
6:35 PM 60.8 °F - 3.7 °F 10% 30.09 in 10.0 mi SW 10.4 mph - N/A   Clear
6:55 PM 60.4 °F - 3.4 °F 10% 30.09 in 10.0 mi WSW 9.2 mph - N/A   Clear
7:15 PM 59.9 °F - 2.3 °F 10% 30.09 in 10.0 mi SSW 10.4 mph - N/A   Clear
7:35 PM 59.0 °F - 1.9 °F 10% 30.09 in 10.0 mi SW 9.2 mph - N/A   Clear
7:55 PM 57.6 °F - 2.3 °F 11% 30.09 in 10.0 mi SW 8.1 mph - N/A   Clear
8:15 PM 54.0 °F - 4.8 °F 14% 30.09 in 10.0 mi Calm Calm - N/A   Clear
8:35 PM 48.0 °F - 8.1 °F 20% 30.09 in 10.0 mi Calm Calm - N/A   Clear
8:55 PM 43.9 °F - 9.9 °F 25% 30.10 in 10.0 mi Calm Calm - N/A   Clear
9:15 PM 43.9 °F 42.3 °F 6.3 °F 21% 30.10 in 10.0 mi East 3.5 mph - N/A   Clear
9:35 PM 42.8 °F - 8.4 °F 24% 30.11 in 10.0 mi Calm Calm - N/A   Clear
9:55 PM 41.4 °F 39.4 °F 8.1 °F 25% 30.11 in 10.0 mi NNE 3.5 mph - N/A   Clear
10:15 PM 43.3 °F - 7.0 °F 22% 30.11 in 10.0 mi Calm Calm - N/A   Clear
10:35 PM 42.4 °F 38.1 °F 9.3 °F 26% 30.10 in 10.0 mi NE 6.9 mph - N/A   Clear
10:55 PM 40.6 °F - 9.3 °F 28% 30.10 in 10.0 mi Calm Calm - N/A   Clear
11:15 PM 41.7 °F 39.8 °F 8.4 °F 25% 30.10 in 10.0 mi ENE 3.5 mph - N/A   Clear
11:35 PM 36.7 °F - 8.8 °F 31% 30.10 in 10.0 mi Calm Calm - N/A   Clear
11:55 PM 35.4 °F - 10.2 °F 35% 30.10 in 10.0 mi Calm Calm - N/A   Clear